www.kiriwi.de
Wetterdaten: aktuell Dienstag, 05.05.2026 00:29
Datum Zeit Temp. Außen Temp.Boden Feucht Außen Luftdruck Regen Wind Richtung Richtung Sonnenschein UV Index Solar Windchill Windböen
05.05.2026 00:29 13,8 °C 14,8 °C 94 % 1012,7 hPa 0,7 l/m² 2,2 km/h (1 Bft) S-SO 152 ° 0 min 0,0 UV-I 0 W/m² 13,8 °C 4,3 km/h (1 Bft)
04.05.2026 23:30 13,9 °C 14,7 °C 93 % 1012,6 hPa 1,6 l/m² 1,8 km/h (1 Bft) S 178 ° 0 min 0,0 UV-I 0 W/m² 13,9 °C 3,2 km/h (1 Bft)
04.05.2026 22:32 14,1 °C 14,7 °C 92 % 1012,3 hPa 1,4 l/m² 1,8 km/h (1 Bft) W-SW 242 ° 0 min 0,0 UV-I 0 W/m² 14,1 °C 2,9 km/h (1 Bft)
04.05.2026 21:33 14,0 °C 14,6 °C 90 % 1012,9 hPa 2,6 l/m² 7,2 km/h (2 Bft) S-SW 196 ° 0 min 0,0 UV-I 0 W/m² 14,0 °C 16,9 km/h (3 Bft)
04.05.2026 20:35 17,9 °C 14,6 °C 68 % 1012,2 hPa 0,0 l/m² 2,2 km/h (1 Bft) S 177 ° 0 min 0,0 UV-I 3 W/m² 17,9 °C 2,9 km/h (1 Bft)
04.05.2026 19:36 18,2 °C 14,7 °C 68 % 1011,9 hPa 0,0 l/m² 3,6 km/h (1 Bft) NO 53 ° 0 min 0,0 UV-I 26 W/m² 18,2 °C 5,4 km/h (1 Bft)
04.05.2026 18:38 18,7 °C 14,3 °C 67 % 1011,5 hPa 0,0 l/m² 2,2 km/h (1 Bft) N 8 ° 0 min 0,0 UV-I 92 W/m² 18,7 °C 7,9 km/h (2 Bft)
04.05.2026 17:39 19,8 °C 14,4 °C 60 % 1011,3 hPa 0,0 l/m² 5,8 km/h (2 Bft) NO 34 ° 0 min 1,0 UV-I 189 W/m² 19,8 °C 8,6 km/h (2 Bft)
04.05.2026 16:41 20,1 °C 14,3 °C 55 % 1011,5 hPa 0,0 l/m² 2,9 km/h (1 Bft) N-NO 19 ° 6 min 2,0 UV-I 219 W/m² 20,1 °C 7,2 km/h (2 Bft)
04.05.2026 15:42 20,4 °C 14,4 °C 53 % 1011,7 hPa 0,0 l/m² 2,2 km/h (1 Bft) S-SO 160 ° 20 min 3,0 UV-I 430 W/m² 20,4 °C 9,4 km/h (2 Bft)
04.05.2026 14:44 20,1 °C 14,4 °C 57 % 1012,1 hPa 0,0 l/m² 4,7 km/h (1 Bft) NO 42 ° 16 min 2,0 UV-I 265 W/m² 20,1 °C 8,6 km/h (2 Bft)
04.05.2026 13:45 19,7 °C 14,4 °C 59 % 1012,4 hPa 0,0 l/m² 4,3 km/h (1 Bft) S-SW 202 ° 20 min 1,0 UV-I 205 W/m² 19,7 °C 5,8 km/h (2 Bft)
04.05.2026 12:47 18,9 °C 14,5 °C 61 % 1012,8 hPa 0,0 l/m² 2,5 km/h (1 Bft) S 185 ° 10 min 4,0 UV-I 456 W/m² 18,9 °C 5,8 km/h (2 Bft)
04.05.2026 11:48 17,5 °C 14,5 °C 66 % 1012,9 hPa 0,0 l/m² 2,5 km/h (1 Bft) SW 232 ° 18 min 8,0 UV-I 922 W/m² 17,5 °C 5,4 km/h (1 Bft)
04.05.2026 10:50 17,1 °C 14,5 °C 68 % 1013,2 hPa 0,0 l/m² 0,0 km/h (0 Bft) SW 218 ° 17 min 2,0 UV-I 285 W/m² 17,1 °C 5,4 km/h (1 Bft)
04.05.2026 09:51 16,5 °C 14,3 °C 70 % 1013,0 hPa 0,0 l/m² 3,2 km/h (1 Bft) W 264 ° 20 min 5,0 UV-I 577 W/m² 16,5 °C 9,0 km/h (2 Bft)
04.05.2026 08:53 16,9 °C 14,6 °C 73 % 1012,5 hPa 0,0 l/m² 4,0 km/h (1 Bft) NW 306 ° 51 min 2,0 UV-I 227 W/m² 16,9 °C 6,8 km/h (2 Bft)
04.05.2026 07:54 15,8 °C 14,7 °C 77 % 1012,1 hPa 0,0 l/m² 10,1 km/h (2 Bft) S-SW 207 ° 28 min 1,0 UV-I 169 W/m² 15,8 °C 12,6 km/h (3 Bft)
04.05.2026 06:56 15,0 °C 14,6 °C 79 % 1012,0 hPa 0,0 l/m² 3,6 km/h (1 Bft) S 183 ° 0 min 0,0 UV-I 62 W/m² 15,0 °C 8,6 km/h (2 Bft)
04.05.2026 05:58 15,1 °C 14,5 °C 77 % 1011,4 hPa 0,0 l/m² 5,8 km/h (2 Bft) S 180 ° 0 min 0,0 UV-I 4 W/m² 15,1 °C 8,6 km/h (2 Bft)
04.05.2026 04:59 15,2 °C 14,8 °C 79 % 1011,2 hPa 0,0 l/m² 4,7 km/h (1 Bft) S 186 ° 0 min 0,0 UV-I 0 W/m² 15,2 °C 7,6 km/h (2 Bft)
04.05.2026 04:01 15,2 °C 14,7 °C 78 % 1011,3 hPa 0,0 l/m² 7,2 km/h (2 Bft) S 187 ° 0 min 0,0 UV-I 0 W/m² 15,2 °C 12,2 km/h (2 Bft)
04.05.2026 03:02 15,0 °C 14,4 °C 77 % 1010,9 hPa 0,0 l/m² 6,1 km/h (2 Bft) S-SW 197 ° 0 min 0,0 UV-I 0 W/m² 15,0 °C 8,3 km/h (2 Bft)
04.05.2026 01:59 15,0 °C 14,9 °C 77 % 1011,1 hPa 0,0 l/m² 4,7 km/h (1 Bft) S-SW 194 ° 0 min 0,0 UV-I 0 W/m² 15,0 °C 5,4 km/h (1 Bft)
04.05.2026 01:01 15,7 °C 14,7 °C 73 % 1011,1 hPa 0,0 l/m² 2,9 km/h (1 Bft) S 190 ° 0 min 0,0 UV-I 0 W/m² 15,7 °C 4,3 km/h (1 Bft)
_ Min-Zeit 23:22 13:33 15:34 03:06 - 09:15 - - - - - 23:22 21:55
Minimum _ 13,8 °C 14,1 °C 50 % 1010,8 hPa - 0,0 km/h (0 Bft) - - - - - 13,8 °C 0,0 km/h (0 Bft)
_ Max-Zeit 15:34 03:24 23:46 10:46 21:27 21:11 - - 07:59 14:28 14:28 15:34 21:21
Maximum _ 21,1 °C 15,0 °C 94 % 1013,3 hPa 0,7 l/m² 24,1 km/h
S-SW (4 Bft)
- - 3 min 10,0 UV-I 1086 W/m² 21,1 °C 27,7 km/h
S (4 Bft)
Durchschnitt _ 16,9 °C 14,5 °C 72 % 1012,0 hPa #6,1 l/m² 4,5 km/h (1 Bft) S-SW - #0 min. 0,0 UV-I 0 W/m² 16,9 °C 7,8 km/h (2 Bft)
www.kiriwi.de